Weather History for PAFA - July, 2013

Change the Weather History Date:

Tuesday, July 16, 2013

  Actual Average Record
Temperature  
Mean Temperature 65 °F 63 °F  
Max Temperature 68 °F 73 °F 91 °F (1918)
Min Temperature 61 °F 53 °F 39 °F (1905)
Degree Days  
Heating Degree Days 0 3  
Month to date heating degree days 50 48  
Since 1 June heating degree days 121 208  
Since 1 July heating degree days 50 48  
Cooling Degree Days 0 1  
Month to date cooling degree days 24 20  
Year to date cooling degree days 172 44  
Since 1 June cooling degree days 159 43  
Growing Degree Days 17 (Base 50)    
Moisture  
Dew Point 52 °F    
Average Humidity 60    
Maximum Humidity 78    
Minimum Humidity 41    
Precipitation  
Precipitation T in 0.07 in 0.94 in (1950)
Month to date precipitation 0.40 1.05  
Year to date precipitation 3.17 4.58  
Snow  
Snow 0.00 in 0.00 in 0.00 in (2002)
Month to date snowfall 0.0 0.0  
Since 1 June snowfall 0.0 0.0  
Since 1 July snowfall 0.0 0.0  
Snow Depth 0.00 in    
Sea Level Pressure  
Sea Level Pressure 30.13 in    
Wind  
Wind Speed 6 mph (WSW)    
Max Wind Speed 13 mph    
Max Gust Speed -    
Visibility 10 miles    
Events      
T = Trace of Precipitation, MM = Missing Value Source: NWS Daily Summary

Daily Weather History Graph

Daily Weather History Graph

Search for Another Location

Airport or City:

Trip Planner

Search our weather history database for the weather conditions in past years. The results will help you decide how hot, cold, wet, or windy it might be!

Date:

Astronomy

Jul. 16, 2013 Rise Set
Actual Time 3:58 AM AKDT 11:54 PM AKDT
Civil Twilight 2:30 AM AKDT 1:25 AM AKDT
Nautical Twilight Sun does not rise Sun does not rise
Astronomical Twilight Sun does not rise Sun does not rise
Moon 4:36 PM AKDT (7/16) 12:05 AM AKDT (7/16)
Length of Visible Light 22h 55m
Length of Day
19h 56m
First Quarter, 58% of the Moon is Illuminated
Jul 16
First Quarter
Jul 22
Full
Jul 29
Last Quarter
Aug 6
New
Aug 14
First Quarter

Hourly Weather History & Observations

Time (AKDT) Temp. Dew Point Humidity Pressure Visibility Wind Dir Wind Speed Gust Speed Precip Events Conditions
12:53 AM 66.0 °F 51.1 °F 59% 30.12 in 10.0 mi WNW 5.8 mph - N/A   Mostly Cloudy
1:53 AM 68.0 °F 51.1 °F 55% 30.12 in 10.0 mi NW 6.9 mph - N/A   Overcast
2:53 AM 66.0 °F 48.9 °F 54% 30.12 in 10.0 mi NW 9.2 mph - N/A   Overcast
3:53 AM 66.0 °F 48.0 °F 52% 30.12 in 10.0 mi NW 8.1 mph - N/A   Overcast
4:53 AM 66.0 °F 48.0 °F 52% 30.13 in 10.0 mi WNW 8.1 mph - N/A   Mostly Cloudy
5:53 AM 64.9 °F 48.9 °F 56% 30.14 in 10.0 mi SW 4.6 mph - N/A   Mostly Cloudy
6:53 AM 64.0 °F 50.0 °F 60% 30.14 in 10.0 mi SW 3.5 mph - N/A   Mostly Cloudy
7:53 AM 64.0 °F 50.0 °F 60% 30.16 in 10.0 mi WSW 5.8 mph - N/A   Overcast
8:53 AM 63.0 °F 52.0 °F 67% 30.16 in 10.0 mi SW 6.9 mph - N/A   Overcast
9:53 AM 64.9 °F 52.0 °F 63% 30.16 in 10.0 mi West 6.9 mph - N/A   Mostly Cloudy
10:53 AM 63.0 °F 52.0 °F 67% 30.17 in 10.0 mi SSW 5.8 mph - N/A   Mostly Cloudy
11:53 AM 61.0 °F 54.0 °F 78% 30.17 in 10.0 mi SSW 6.9 mph - 0.00 in   Overcast
12:53 PM 63.0 °F 53.1 °F 70% 30.17 in 10.0 mi SW 4.6 mph - N/A   Overcast
1:53 PM 66.0 °F 53.1 °F 63% 30.15 in 10.0 mi SSW 4.6 mph - N/A   Mostly Cloudy
2:53 PM 66.9 °F 53.1 °F 61% 30.14 in 10.0 mi WSW 6.9 mph - N/A   Mostly Cloudy
3:53 PM 66.9 °F 53.1 °F 61% 30.14 in 10.0 mi SW 6.9 mph - N/A   Mostly Cloudy
4:53 PM 68.0 °F 53.1 °F 59% 30.12 in 10.0 mi Variable 6.9 mph - N/A   Mostly Cloudy
5:53 PM 66.9 °F 52.0 °F 59% 30.12 in 10.0 mi WSW 10.4 mph - N/A   Mostly Cloudy
6:53 PM 66.0 °F 53.1 °F 63% 30.11 in 10.0 mi WSW 8.1 mph - N/A   Mostly Cloudy
7:53 PM 66.0 °F 53.1 °F 63% 30.11 in 10.0 mi WSW 5.8 mph - N/A   Mostly Cloudy
8:53 PM 64.9 °F 53.1 °F 65% 30.11 in 10.0 mi SSW 3.5 mph - N/A   Mostly Cloudy
9:53 PM 64.9 °F 52.0 °F 63% 30.11 in 10.0 mi Calm Calm - N/A   Mostly Cloudy
10:53 PM 64.0 °F 53.1 °F 67% 30.10 in 10.0 mi Variable 3.5 mph - N/A   Mostly Cloudy
11:53 PM 63.0 °F 53.1 °F 70% 30.10 in 10.0 mi SSW 4.6 mph - N/A   Mostly Cloudy